Terminal Aerodrome Forecast
Issued by NWS

Home | Current Version | Previous Version | Text Only | Print | Product List | Glossary On
Versions: 1 2 3 4 5 6 7 8 9 10 11 12 13 14 15 16 17 18 19 20 21 22 23 24 25 26 27 28 29 30 31 32 33 34 35 36 37 38 39 40 41 42
000
FTAK31 PANC 251132
TAFASN
TAF
PASN 251132Z 2512/2612 08015G25KT P6SM SCT015
      TEMPO 2512/2516 BKN015
     FM252100 08018KT P6SM OVC025=

USA.gov is the U.S. government's official web portal to all federal, state and local government web resources and services.